Kake, AK

3:56 PM AKDT on September 21, 2017 (GMT -0800)
Kake

Weather History for PAFE - January, 2013

Change the Weather History Date:

Sunday, January 13, 2013

  Actual Average Record
Temperature  
Mean Temperature 37 °F -  
Max Temperature 39 °F 33 °F 48 °F (2015)
Min Temperature 35 °F 27 °F 10 °F (2005)
Degree Days  
Heating Degree Days 28    
Moisture  
Dew Point 34 °F    
Average Humidity 89    
Maximum Humidity 93    
Minimum Humidity 81    
Precipitation  
Precipitation 0.02 in - - ()
Sea Level Pressure  
Sea Level Pressure 30.38 in    
Wind  
Wind Speed 7 mph (ESE)    
Max Wind Speed 12 mph    
Max Gust Speed 18 mph    
Visibility 9 miles    
Events      
Averages and records for this station are not official NWS values.
T = Trace of Precipitation, MM = Missing Value Source: NWS Daily Summary

Daily Weather History Graph

Daily Weather History Graph

Search for Another Location

Airport or City:

Trip Planner

Search our weather history database for the weather conditions in past years. The results will help you decide how hot, cold, wet, or windy it might be!

Date:

Astronomy

Jan. 13, 2013 Rise Set
Actual Time 8:24 AM AKST 3:45 PM AKST
Civil Twilight 7:37 AM AKST 4:31 PM AKST
Nautical Twilight 6:48 AM AKST 5:20 PM AKST
Astronomical Twilight 6:02 AM AKST 6:06 PM AKST
Moon 8:49 AM AKST (1/13) 7:15 PM AKST (1/13)
Length of Visible Light 8h 54m
Length of Day
7h 21m
Waxing Crescent, 6% of the Moon is Illuminated
Jan 13
Waxing Crescent
Jan 18
First Quarter
Jan 26
Full
Feb 3
Last Quarter
Feb 9
New

Hourly Weather History & Observations

Time (AKST) Temp. Windchill Dew Point Humidity Pressure Visibility Wind Dir Wind Speed Gust Speed Precip Events Conditions
12:16 AM 35.6 °F 29.9 °F 32.0 °F 87% 30.40 in 10.0 mi East 6.9 mph - N/A   Overcast
12:36 AM 35.6 °F 29.2 °F 32.0 °F 87% 30.39 in 10.0 mi East 8.1 mph - N/A   Overcast
12:56 AM 35.6 °F 30.7 °F 32.0 °F 87% 30.40 in 10.0 mi ESE 5.8 mph - N/A   Overcast
1:16 AM 35.6 °F 30.7 °F 30.2 °F 81% 30.40 in 10.0 mi ESE 5.8 mph - N/A   Overcast
1:36 AM 35.6 °F 31.7 °F 30.2 °F 81% 30.40 in 10.0 mi ESE 4.6 mph - N/A   Overcast
1:56 AM 35.6 °F 30.7 °F 30.2 °F 81% 30.40 in 10.0 mi SE 5.8 mph - N/A   Overcast
2:16 AM 35.6 °F 31.7 °F 30.2 °F 81% 30.40 in 6.0 mi SE 4.6 mph - N/A   Overcast
2:36 AM 35.6 °F 29.2 °F 32.0 °F 87% 30.39 in 7.0 mi ESE 8.1 mph - N/A   Overcast
2:56 AM 35.6 °F 30.7 °F 32.0 °F 87% 30.40 in 5.0 mi ESE 5.8 mph - 0.01 in   Overcast
3:16 AM 35.6 °F 29.9 °F 32.0 °F 87% 30.40 in 7.0 mi ESE 6.9 mph - N/A   Overcast
3:36 AM 35.6 °F 31.7 °F 32.0 °F 87% 30.39 in 6.0 mi ESE 4.6 mph - N/A   Overcast
3:56 AM 35.6 °F 29.9 °F 32.0 °F 87% 30.39 in 9.0 mi ESE 6.9 mph - N/A   Overcast
4:16 AM 35.6 °F 29.9 °F 32.0 °F 87% 30.38 in 7.0 mi East 6.9 mph - N/A   Overcast
4:36 AM 35.6 °F 29.2 °F 33.8 °F 93% 30.38 in 10.0 mi East 8.1 mph - N/A   Overcast
4:56 AM 35.6 °F 29.2 °F 32.0 °F 87% 30.38 in 10.0 mi ESE 8.1 mph - N/A   Overcast
5:16 AM 35.6 °F 29.2 °F 33.8 °F 93% 30.38 in 8.0 mi ESE 8.1 mph - N/A   Overcast
5:36 AM 35.6 °F 29.9 °F 33.8 °F 93% 30.38 in 7.0 mi East 6.9 mph - N/A   Overcast
5:56 AM 35.6 °F 30.7 °F 33.8 °F 93% 30.39 in 6.0 mi ESE 5.8 mph - N/A   Overcast
6:16 AM 35.6 °F 29.2 °F 33.8 °F 93% 30.38 in 6.0 mi ESE 8.1 mph - 0.01 in   Overcast
6:36 AM 35.6 °F 28.6 °F 33.8 °F 93% 30.38 in 7.0 mi ESE 9.2 mph - 0.01 in   Overcast
6:56 AM 35.6 °F 30.7 °F 33.8 °F 93% 30.39 in 9.0 mi East 5.8 mph - 0.01 in   Overcast
7:16 AM 35.6 °F 29.9 °F 33.8 °F 93% 30.39 in 7.0 mi ESE 6.9 mph - N/A   Overcast
7:36 AM 35.6 °F 29.9 °F 33.8 °F 93% 30.39 in 7.0 mi ESE 6.9 mph - N/A   Overcast
7:56 AM 35.6 °F 30.7 °F 33.8 °F 93% 30.39 in 7.0 mi ESE 5.8 mph - N/A   Overcast
8:16 AM 35.6 °F 31.7 °F 33.8 °F 93% 30.38 in 8.0 mi East 4.6 mph - N/A   Overcast
8:36 AM 35.6 °F 30.7 °F 33.8 °F 93% 30.39 in 10.0 mi East 5.8 mph - N/A   Overcast
8:56 AM 35.6 °F 29.9 °F 33.8 °F 93% 30.39 in 10.0 mi ESE 6.9 mph - N/A   Mostly Cloudy
9:16 AM 35.6 °F 29.2 °F 33.8 °F 93% 30.38 in 10.0 mi ESE 8.1 mph - N/A   Overcast
9:36 AM 35.6 °F 29.9 °F 33.8 °F 93% 30.38 in 10.0 mi ESE 6.9 mph - N/A   Overcast
9:56 AM 35.6 °F 31.7 °F 33.8 °F 93% 30.38 in 8.0 mi ESE 4.6 mph - N/A   Overcast
10:16 AM 35.6 °F 30.7 °F 33.8 °F 93% 30.39 in 7.0 mi ESE 5.8 mph - N/A   Overcast
10:36 AM 35.6 °F 29.9 °F 33.8 °F 93% 30.39 in 5.0 mi ESE 6.9 mph - N/A   Overcast
10:56 AM 37.4 °F 32.8 °F 33.8 °F 87% 30.39 in 9.0 mi ESE 5.8 mph - N/A   Overcast
11:16 AM 37.4 °F 31.4 °F 33.8 °F 87% 30.38 in 8.0 mi ESE 8.1 mph - N/A   Overcast
11:36 AM 37.4 °F 31.4 °F 33.8 °F 87% 30.38 in 4.0 mi ESE 8.1 mph - N/A   Overcast
11:56 AM 37.4 °F 32.1 °F 33.8 °F 87% 30.38 in 6.0 mi ESE 6.9 mph - N/A   Overcast
12:16 PM 37.4 °F 32.1 °F 33.8 °F 87% 30.38 in 5.0 mi ESE 6.9 mph - N/A   Overcast
12:36 PM 37.4 °F 31.4 °F 33.8 °F 87% 30.37 in 9.0 mi ESE 8.1 mph - N/A   Overcast
12:56 PM 37.4 °F 31.4 °F 33.8 °F 87% 30.38 in 9.0 mi ESE 8.1 mph - N/A   Overcast
1:16 PM 37.4 °F 32.8 °F 33.8 °F 87% 30.38 in 10.0 mi ESE 5.8 mph - N/A   Overcast
1:36 PM 37.4 °F 31.4 °F 33.8 °F 87% 30.37 in 10.0 mi ESE 8.1 mph - N/A   Overcast
1:56 PM 37.4 °F 32.1 °F 33.8 °F 87% 30.38 in 10.0 mi ESE 6.9 mph - N/A   Overcast
2:16 PM 37.4 °F 30.8 °F 33.8 °F 87% 30.37 in 10.0 mi ESE 9.2 mph - N/A   Overcast
2:36 PM 37.4 °F 30.8 °F 33.8 °F 87% 30.36 in 10.0 mi ESE 9.2 mph - N/A   Overcast
2:56 PM 37.4 °F 30.8 °F 33.8 °F 87% 30.37 in 10.0 mi ESE 9.2 mph - N/A   Overcast
3:16 PM 37.4 °F 30.8 °F 33.8 °F 87% 30.38 in 10.0 mi ESE 9.2 mph - N/A   Overcast
3:36 PM 37.4 °F 30.8 °F 33.8 °F 87% 30.38 in 10.0 mi ESE 9.2 mph - N/A   Overcast
3:56 PM 37.4 °F 30.8 °F 33.8 °F 87% 30.37 in 10.0 mi ESE 9.2 mph - N/A   Overcast
4:16 PM 37.4 °F 31.4 °F 33.8 °F 87% 30.38 in 10.0 mi East 8.1 mph - N/A   Overcast
4:36 PM 37.4 °F 31.4 °F 33.8 °F 87% 30.37 in 10.0 mi ESE 8.1 mph - N/A   Overcast
4:56 PM 37.4 °F 31.4 °F 33.8 °F 87% 30.37 in 10.0 mi ESE 8.1 mph - N/A   Overcast
5:16 PM 37.4 °F 30.8 °F 33.8 °F 87% 30.37 in 10.0 mi ESE 9.2 mph - N/A   Overcast
5:36 PM 37.4 °F 30.8 °F 33.8 °F 87% 30.36 in 10.0 mi ESE 9.2 mph - N/A   Overcast
5:56 PM 37.4 °F 32.1 °F 33.8 °F 87% 30.36 in 10.0 mi ESE 6.9 mph - N/A   Overcast
6:16 PM 37.4 °F 32.1 °F 33.8 °F 87% 30.36 in 10.0 mi ESE 6.9 mph - N/A   Overcast
6:36 PM 37.4 °F 30.3 °F 33.8 °F 87% 30.36 in 10.0 mi ESE 10.4 mph - N/A   Overcast
6:56 PM 37.4 °F 31.4 °F 35.6 °F 93% 30.36 in 10.0 mi ESE 8.1 mph - N/A   Overcast
7:16 PM 37.4 °F 31.4 °F 35.6 °F 93% 30.37 in 10.0 mi ESE 8.1 mph - N/A   Overcast
7:36 PM 37.4 °F 31.4 °F 35.6 °F 93% 30.36 in 10.0 mi ESE 8.1 mph - N/A   Overcast
7:56 PM 37.4 °F 30.3 °F 35.6 °F 93% 30.36 in 10.0 mi ESE 10.4 mph 16.1 mph N/A   Overcast
8:36 PM 39.2 °F 33.6 °F 35.6 °F 87% 30.36 in 10.0 mi ESE 8.1 mph - N/A   Overcast
8:56 PM 39.2 °F 33.0 °F 35.6 °F 87% 30.36 in 10.0 mi ESE 9.2 mph - N/A   Overcast
9:16 PM 39.2 °F 33.6 °F 35.6 °F 87% 30.36 in 10.0 mi ESE 8.1 mph - N/A   Overcast
9:36 PM 39.2 °F 32.5 °F 35.6 °F 87% 30.36 in 10.0 mi ESE 10.4 mph - N/A   Overcast
10:16 PM 39.2 °F 33.0 °F 35.6 °F 87% 30.36 in 10.0 mi ESE 9.2 mph - N/A   Overcast
10:36 PM 39.2 °F 32.0 °F 35.6 °F 87% 30.35 in 10.0 mi ESE 11.5 mph 18.4 mph N/A   Overcast
10:56 PM 39.2 °F 33.0 °F 35.6 °F 87% 30.36 in 10.0 mi ESE 9.2 mph - N/A   Overcast
11:16 PM 39.2 °F 32.0 °F 35.6 °F 87% 30.36 in 10.0 mi ESE 11.5 mph - N/A   Overcast
11:36 PM 39.2 °F 32.5 °F 35.6 °F 87% 30.35 in 10.0 mi ESE 10.4 mph - N/A   Overcast
11:56 PM 39.2 °F 33.0 °F 35.6 °F 87% 30.36 in 10.0 mi ESE 9.2 mph - N/A   Overcast